This is the latest recevied weather packets stored in our database for station/object IW9CSJ-13. If no packets are shown the sender has not sent any weather packets the latest 10 day(s).
| Time | Temp. | Humidity | Pressure | Rain* | Wind** | Luminosity | Snow |
|---|---|---|---|---|---|---|---|
| 1777532420 | 20° C | 54% | 1014.1 hPa | 0 mm | - | - | - |
| 1777532119 | 20° C | 54% | 1014 hPa | 0 mm | - | - | - |
| 1777531821 | 20° C | 54% | 1014 hPa | 0 mm | - | - | - |
| 1777531219 | 19.44° C | 57% | 1013.9 hPa | 0 mm | - | - | - |
| 1777530919 | 19.44° C | 56% | 1013.8 hPa | 0 mm | - | - | - |
| 1777530319 | 19.44° C | 55% | 1013.9 hPa | 0 mm | - | - | - |
| 1777530020 | 19.44° C | 53% | 1013.8 hPa | 0 mm | - | - | - |
| 1777529722 | 19.44° C | 53% | 1013.8 hPa | 0 mm | - | - | - |
| 1777529420 | 18.89° C | 54% | 1013.7 hPa | 0 mm | - | - | - |
| 1777529120 | 18.89° C | 54% | 1013.7 hPa | 0 mm | - | - | - |
| 1777528519 | 18.33° C | 56% | 1013.7 hPa | 0 mm | - | - | - |
| 1777528221 | 17.78° C | 55% | 1013.8 hPa | 0 mm | - | - | - |
| 1777527619 | 17.78° C | 54% | 1013.8 hPa | 0 mm | - | - | - |
| 1777527319 | 17.78° C | 54% | 1013.8 hPa | 0 mm | - | - | - |
| 1777527021 | 17.22° C | 53% | 1013.8 hPa | 0 mm | - | - | - |
| 1777526721 | 17.22° C | 53% | 1013.8 hPa | 0 mm | - | - | - |
| 1777526421 | 17.78° C | 51% | 1013.8 hPa | 0 mm | - | - | - |
| 1777526119 | 17.22° C | 51% | 1013.9 hPa | 0 mm | - | - | - |
| 1777525818 | 17.22° C | 51% | 1013.9 hPa | 0 mm | - | - | - |
| 1777525518 | 17.22° C | 51% | 1013.9 hPa | 0 mm | - | - | - |
| 1777525222 | 16.67° C | 49% | 1013.8 hPa | 0 mm | - | - | - |
| 1777524919 | 16.67° C | 50% | 1013.9 hPa | 0 mm | - | - | - |
| 1777524619 | 16.67° C | 50% | 1013.9 hPa | 0 mm | - | - | - |
| 1777524020 | 16.67° C | 50% | 1014 hPa | 0 mm | - | - | - |
| 1777523719 | 16.67° C | 50% | 1014 hPa | 0 mm | - | - | - |
* Rain latest hour (hover to see other rain measurements)
** Current wind speed in m/s (hover to see current wind gust speed)